Content
SEND FEEDBACK

Daily
Averages
Monthly
Summary
Cuba

HAVANA, CUBA


Home > Caribbean > Cuba
Elevation: 194 feet     Latitude: 22 59N     Longitude: 082 24W

WEATHER
 
SELECT A DAY
Number of Records: 138,912;   Date Range: 6/30/96 - 7/23/14
 
SHARE

PRINT THIS DATA

[ ← Previous Day ]
WEATHER ALMANAC - JANUARY 31, 2013
[ Next Day → ]
[ °C ]   °F
Weather ElementAverageHighLow
Temperature72.1 °F78.8 °F (10:55 am)68 °F (10:55 pm)
Dewpoint62.8 °F71.6 °F (8:55 am) (7:00 pm)
Humidity83.3 %94 % (3:55 am)69 % (11:31 am)
Barometer30.06 in30.18 in (9:55 pm)30.01 in (1:55 am)
Wind Speed10.5 mph16.1 mph (11:55 am)
Wind Gust25.3 mph (7:55 pm)
Weather ElementAverage
Visibility4.9 mi
Wind DirectionSSE (141.5 °)

Weather ElementTotal
Precipitation---
Cooling Degree Days8.4 (Base 65)
Growing Degree Days23.4 (Base 50)
Averaged from 34 records on January 31, 2013
WEATHER CONDITIONS BREAKOUT
WIND DIRECTION BREAKOUT
WEATHER BY HOUR - JANUARY 31, 2013
[ °C ]   °F
Local TimeTemperatureDewpointHumidityBarometerVisibilityWind DirectionWind SpeedGust SpeedPrecipitationEventsConditions
1:55 AM71.6 °F68.0 °F88 %30.01 in5.0 miSouth (170°)9.2 mphClear
2:55 AM69.8 °F66.2 °F88 %30.01 in5.0 miSouth (180°)9.2 mphClear
3:55 AM69.8 °F68.0 °F94 %30.01 in5.0 miSouth (190°)8.1 mphPartly Cloudy
4:48 AM69.8 °F68.0 °F94 %30.01 in5.0 miSouth (190°)8.1 mphPartly Cloudy
4:53 AM69.8 °F68.0 °F94 %30.01 in5.0 miSouth (190°)6.9 mphPartly Cloudy
4:55 AM69.8 °F68.0 °F94 %30.01 in5.0 miSouth (190°)8.1 mph
5:07 AM69.8 °F68.0 °F94 %30.01 in5.0 miSouth (190°)8.1 mphPartly Cloudy
5:26 AM69.8 °F68.0 °F94 %30.01 in5.0 miSouth (190°)8.1 mphPartly Cloudy
5:55 AM71.6 °F68.0 °F88 %30.01 in5.0 miSouth (190°)8.1 mphPartly Cloudy
6:02 AM71.6 °F68.0 °F88 %30.01 in5.0 miSSW (200°)8.1 mphPartly Cloudy
6:10 AM71.6 °F68.0 °F88 %30.01 in5.0 miSouth (190°)6.9 mphPartly Cloudy
6:55 AM71.6 °F0.0 °F30.04 in3.1 miSSW (200°)6.9 mphFogPatches of Fog
7:00 AM71.6 °F68.0 °F88 %30.04 in0.9 miSSW (210°)6.9 mphFogPatches of Fog
7:05 AM71.6 °F68.0 °F88 %30.04 in0.3 miSSW (200°)6.9 mphFogPatches of Fog
7:17 AM71.6 °F68.0 °F88 %30.04 in3.1 miSouth (190°)6.9 mph
7:34 AM71.6 °F68.0 °F88 %30.04 in4.3 miSSW (200°)6.9 mphPartly Cloudy
7:55 AM71.6 °F0.0 °F30.04 in5.0 miSSW (210°)6.9 mphPartly Cloudy
8:55 AM73.4 °F71.6 °F94 %30.06 in5.0 miSSW (200°)9.2 mphScattered Clouds
9:55 AM75.2 °F71.6 °F89 %30.09 in5.6 miSSW (210°)9.2 mphScattered Clouds
10:55 AM78.8 °F69.8 °F74 %30.09 in5.6 miWSW (240°)13.8 mphScattered Clouds
11:31 AM78.8 °F68.0 °F69 %30.09 in5.0 miWNW (300°)11.5 mphMostly Cloudy
11:55 AM77.0 °F69.8 °F78 %30.09 in5.0 miNorth (350°)16.1 mphRainLight Rain
12:55 PM77.0 °F68.0 °F74 %30.09 in5.6 miNorth (10°)13.8 mphMostly Cloudy
1:55 PM75.2 °F66.2 °F73 %30.06 in5.6 miNNE (20°)13.8 mphMostly Cloudy
2:55 PM75.2 °F66.2 °F73 %30.06 in5.6 miNorth (10°)13.8 mphMostly Cloudy
3:55 PM73.4 °F66.2 °F78 %30.06 in5.6 miNNE (20°)13.8 mphMostly Cloudy
4:55 PM73.4 °F64.4 °F73 %30.09 in5.6 miNNE (20°)13.8 mphOvercast
5:55 PM71.6 °F64.4 °F78 %30.09 in5.6 miNNE (30°)15.0 mphOvercast
6:55 PM71.6 °F64.4 °F78 %30.12 in5.6 miNorth (10°)15.0 mphOvercast
7:55 PM71.6 °F62.6 °F73 %30.12 in5.6 miNNE (20°)12.7 mph25.3 mphMostly Cloudy
8:55 PM69.8 °F62.6 °F78 %30.15 in5.6 miNNE (20°)12.7 mphMostly Cloudy
9:55 PM69.8 °F60.8 °F73 %30.18 in5.6 miNNE (20°)12.7 mphMostly Cloudy
10:55 PM68.0 °F60.8 °F78 %30.18 in5.6 miNNE (30°)15.0 mphMostly Cloudy
11:55 PM68.0 °F60.8 °F78 %30.18 in5.6 miNNE (20°)13.8 mphMostly Cloudy
Hourly data recorded from MUHA, located miles away from Havana, Cuba







STORIES FROM OUR PARTNERS